PSLV DEB

Satellite information

Favourite Embed

Satellite Type and Status

DEBRISIN ORBIT

Key statistics

Satellite PSLV DEB at a glance.

Uptime

8659

Days in orbit

Revolutions

≈ 14.5

Per day

Orbit

SSO

Sun Synchronous Orbit

Inclination

98.3

Latest

Satellite identification and parameters

Extended collection of information and parameters for PSLV DEB.

Object identification

Identified? True

Debris? True

Object name: PSLV DEB

International designator: 2001-049PX

Object number (NORAD): 35339

Object ID (CCSDS): 35339

Country: INDIA (IND)

Current information (Y/N): Y

RCS size: SMALL

Orbital parameters

Period: 99.105 minutes

Inclination: 98.3493 deg

SMA: 7093.978 km

Apoapsis: 820.85 km

Periapsis: 610.837 km

RAAN: 313.2976 deg

Eccentricy: 0.0148022

Argument of periapsis: 118.3615 deg

Mean anomaly: 243.2598 deg

Mean motion: 14.53007869 rev/day

Mean motion (dot): 0.00004137 rev/day2

B* drag term: 0.00087781 1/REarth

Two-line elements (TLE)

Creation date: July 6, 2025, 10:56 p.m.

Reference frame: TEME

Reference center: EARTH

Epoch: July 6, 2025, 7 p.m. UTC

TLE line 0: 0 PSLV DEB

TLE line 1: 1 35339U 01049PX 25187.79207644 .00004137 00000-0 87781-3 0 9998

TLE line 2: 2 35339 98.3493 313.2976 0148022 118.3615 243.2598 14.53007869189480

Live tracking on map

Real-time ground track for satellite PSLV DEB.

In-orbit conjunctions

A list of the most updated potential collisions computed for object PSLV DEB.

Target Orbit TCA Probability of collision Miss distance Type
DELTA 1 DEB SSO 2025-06-13 04:33:50 0.0001047376 501.0 (m) DEBRIS
SL-14 R/B LEO 2025-04-10 15:58:41 0.0001388603 384.0 (m) ROCKET BODY
CZ-6A DEB LEO 2024-11-06 00:51:57 0.0002013023 784.0 (m) DEBRIS
COSMOS 2251 DEB LEO 2024-10-25 00:24:52 0.0001619023 126.0 (m) DEBRIS
CZ-6A DEB LEO 2024-10-01 09:00:55 0.0002793958 235.0 (m) DEBRIS

Associated space launch

Technology Experiment Satellite (TES) is Indian remote sensing and photo-reconnaissance satellite. The 1108 kg satellite carries a one-meter resolution panchromatic camera is an experimental satellite to demonstrate and validate, in orbit, technologies that could be used in the future satellites of Indian Space Research Organisation (ISRO). It was successfully placed in 572 km Sun-synchronous orbit on 22 October 2001 using the PSLV-C3. The PSLV-C3 also injected two more satellites: PROBA, a Belgian satellite and BIRD, a German satellite.

PSLV DEB was lifted into orbit during the mission ‘PSLV | TES’, on board a PSLV space rocket.

The launch took place on Oct. 22, 2001, 4:53 a.m. from Satish Dhawan Space Centre First Launch Pad.

For more information about the launch, click the button.

Launch to space PSLV | TES
PSLV | TES

Agency: N/A

Status: Launch Successful

Launch date: Oct. 22, 2001, 4:53 a.m. UTC

Rocket: PSLV

Launch pad: Satish Dhawan Space Centre First Launch Pad

Location: Satish Dhawan Space Centre, India

...

Latest news about this satellite

News about space launch
Proba-1’s T-plus 23 years in orbit

Proba-1’s T-plus 23 years in orbit


Newsletter sign-up

Weekly statistics, charts and insights to help you stay on top of the space industry.